This demonstration page uses our WeatherBlox Daily Observations layout. Learn more.

Left ArrowRight Arrow

Hourly Observations for July 26, 2021

Temp ( °F °C ) Dew Point ( °F °C ) Humidity (%) Winds ( mph kmh ) Pressure ( in mb ) Visibility ( mi km ) Precip ( " mm )
12:53 am 00:53 Clear 68 20 40 4.4 36 36 NE 6 9 29.83 1010 7 11 0.00 0.00
1:53 am 01:53 Clear 64 17.8 40 4.4 41 41 N 5 7 29.82 1010 7 11 0.00 0.00
2:53 am 02:53 Clear 60 15.6 39 3.9 46 46 SW 7 11 29.84 1010 7 11 0.00 0.00
3:53 am 03:53 Clear 57 13.9 38 3.3 49 49 WNW 6 9 29.84 1011 7 11 0.00 0.00
4:53 am 04:53 Clear 55 12.8 38 3.3 53 53 WSW 7 11 29.84 1011 7 11 0.00 0.00
5:53 am 05:53 Hazy 54 12.2 38 3.3 55 55 Calm 29.85 1011 5 8 0.00 0.00
6:53 am 06:53 Hazy 55 12.8 38 3.3 53 53 SW 5 7 29.88 1012 5 8 0.00 0.00
7:53 am 07:53 Hazy 62 16.7 40 4.4 44 44 WSW 8 13 29.90 1012 5 8 0.00 0.00
8:53 am 08:53 Hazy 68 20 40 4.4 36 36 W 9 15 29.91 1013 6 10 0.00 0.00
9:53 am 09:53 Sunny 73 22.8 43 6.1 34 34 W 8 13 29.92 1013 7 11 0.00 0.00
10:53 am 10:53 Sunny 78 25.6 45 7.2 31 31 WSW 7 11 29.93 1013 9 14 0.00 0.00
11:53 am 11:53 Sunny 82 27.8 46 7.8 28 28 VRB 6 9 29.92 1013 9 14 0.00 0.00
12:53 pm 12:53 Sunny 86 30 48 8.9 27 27 NNW 6 9 29.90 1013 10 16 0.00 0.00
1:53 pm 13:53 Sunny 90 32.2 45 7.2 21 21 WNW 9 15 29.89 1012 10 16 0.00 0.00
2:53 pm 14:53 Sunny 92 33.3 44 6.7 19 19 WNW 7 11 29.88 1012 10 16 0.00 0.00
3:53 pm 15:53 Sunny 92 33.3 43 6.1 18 18 W 7 11 29.86 1011 10 16 0.00 0.00
4:53 pm 16:53 Sunny 94 34.4 42 5.6 17 17 E 6 9 29.84 1011 10 16 0.00 0.00
5:53 pm 17:53 Sunny 92 33.3 41 5 17 17 NNE 7 11 29.83 1010 10 16 0.00 0.00
6:53 pm 18:53 Sunny 92 33.3 40 4.4 16 16 ENE 7 11 29.82 1010 10 16 0.00 0.00
7:53 pm 19:53 Sunny 87 30.6 43 6.1 21 21 E 7 11 29.81 1010 10 16 0.00 0.00
8:53 pm 20:53 Sunny 79 26.1 48 8.9 34 34 SE 5 7 29.82 1010 10 16 0.00 0.00
9:53 pm 21:53 Clear 74 23.3 44 6.7 34 34 E 8 13 29.84 1011 10 16 0.00 0.00
10:53 pm 22:53 Clear 75 23.9 40 4.4 28 28 Calm 29.84 1011 10 16 0.00 0.00
11:53 pm 23:53 Clear 74 23.3 42 5.6 32 32 ENE 5 7 29.83 1010 10 16 0.00 0.00

Powered by AerisWeather